FW0225 Weather Reports


time (UTC)temp
C
wind
direction
speed
KPH
gust
KPH
rain 1hr
cm
rain 24hr
cm
rain mn
cm
humidity
%
barometer
mb
20260507224024 11 209 0.0 6.4 0.00 0.00 0.00 90 1016.4
20260507223526 11 209 3.2 6.4 0.00 0.00 0.00 90 1016.3
20260507223017 11 209 1.6 3.2 0.00 0.00 0.00 90 1016.4
20260507222520 11 209 1.6 4.8 0.00 0.00 0.00 90 1016.4
20260507222019 11 209 3.2 4.8 0.00 0.00 0.00 90 1016.4
20260507221523 11 209 1.6 4.8 0.00 0.00 0.00 90 1016.4
20260507221023 11 209 1.6 4.8 0.00 0.00 0.00 90 1016.4
20260507220527 11 209 1.6 4.8 0.00 0.00 0.00 90 1016.4
20260507220018 11 209 3.2 6.4 0.00 0.10 0.00 91 1016.4
20260507215520 10 209 3.2 6.4 0.00 0.10 0.00 91 1016.4
20260507215020 10 209 1.6 4.8 0.00 0.10 0.00 91 1016.3
20260507214525 10 209 0.0 4.8 0.00 0.10 0.00 90 1016.2
20260507214045 10 209 0.0 3.2 0.00 0.10 0.00 90 1016.1
20260507213528 10 209 1.6 3.2 0.00 0.10 0.00 90 1016.0
20260507213023 10 209 1.6 3.2 0.00 0.10 0.00 90 1016.0
20260507212524 10 209 1.6 3.2 0.00 0.10 0.00 90 1016.1
20260507212024 10 209 0.0 1.6 0.00 0.10 0.00 90 1016.1
20260507211527 10 209 0.0 1.6 0.00 0.10 0.00 89 1016.0
20260507211025 10 209 0.0 0.0 0.00 0.10 0.00 89 1016.0
20260507210527 10 209 0.0 0.0 0.00 0.10 0.00 89 1016.0
20260507210037 10 209 0.0 1.6 0.00 0.10 0.00 89 1016.0
20260507205519 10 209 0.0 1.6 0.00 0.10 0.00 88 1015.9
20260507205018 10 209 0.0 0.0 0.00 0.10 0.00 88 1015.9
20260507204522 10 209 0.0 0.0 0.00 0.10 0.00 88 1015.8
20260507204022 10 209 0.0 0.0 0.00 0.10 0.00 88 1015.8
20260507203524 10 209 0.0 0.0 0.00 0.10 0.00 87 1015.7
20260507203015 11 209 0.0 0.0 0.00 0.10 0.00 87 1015.6
20260507202519 11 209 0.0 0.0 0.00 0.10 0.00 87 1015.5
20260507202019 11 209 0.0 0.0 0.00 0.10 0.00 87 1015.5
20260507201527 11 209 0.0 0.0 0.00 0.10 0.00 87 1015.4
20260507201028 11 209 0.0 0.0 0.00 0.10 0.00 87 1015.3
20260507200530 11 209 0.0 0.0 0.00 0.10 0.00 87 1015.3
20260507200021 11 209 0.0 0.0 0.00 0.10 0.00 86 1015.2
20260507195525 11 209 0.0 1.6 0.00 0.10 0.00 86 1015.1
20260507195024 11 209 0.0 1.6 0.00 0.10 0.00 86 1015.1
20260507194527 11 209 0.0 1.6 0.00 0.10 0.00 86 1015.1
20260507194024 11 209 0.0 0.0 0.00 0.10 0.00 85 1014.9
20260507193525 11 209 0.0 0.0 0.00 0.10 0.00 85 1014.8
20260507193018 11 209 0.0 0.0 0.00 0.10 0.00 85 1014.7
20260507192521 11 209 0.0 1.6 0.00 0.10 0.00 85 1014.6
20260507192022 12 209 0.0 1.6 0.00 0.10 0.00 85 1014.5
20260507191527 12 209 0.0 1.6 0.00 0.10 0.00 84 1014.5
20260507191027 12 209 0.0 0.0 0.00 0.10 0.00 84 1014.3
20260507190514 12 209 0.0 1.6 0.00 0.10 0.00 83 1014.2
20260507190026 12 209 0.0 1.6 0.00 3.00 0.00 84 1014.2
20260507185529 12 209 0.0 0.0 0.00 3.00 0.00 83 1014.1
20260507185051 12 209 0.0 0.0 0.00 3.00 0.00 83 1014.0
20260507184513 13 209 0.0 0.0 0.00 3.00 0.00 82 1013.9
20260507184032 13 209 0.0 0.0 0.00 3.00 0.00 82 1013.9
20260507183514 13 209 0.0 1.6 0.00 3.00 0.00 81 1013.7
20260507183047 13 209 1.6 1.6 0.00 3.00 0.00 81 1013.7
20260507182530 13 209 0.0 0.0 0.00 3.00 0.00 81 1013.6
20260507182031 13 209 0.0 1.6 0.00 3.00 0.00 80 1013.5
20260507181513 14 209 0.0 1.6 0.00 3.00 0.00 81 1013.4
20260507181033 14 209 0.0 1.6 0.00 3.00 0.00 81 1013.4
20260507180515 15 209 0.0 1.6 0.00 3.00 0.00 81 1013.4
20260507180028 15 209 0.0 1.6 0.00 3.20 0.00 81 1013.3
20260507175530 15 209 0.0 1.6 0.00 3.20 0.00 81 1013.3
20260507175049 15 209 0.0 0.0 0.00 3.20 0.00 80 1013.3
20260507174530 15 209 0.0 0.0 0.00 3.20 0.00 82 1013.3
20260507174029 16 209 0.0 0.0 0.00 3.20 0.00 82 1013.3
20260507173516 16 209 0.0 1.6 0.00 3.20 0.00 82 1013.3
20260507173045 16 209 0.0 3.2 0.00 3.20 0.00 82 1013.3
20260507172511 16 209 1.6 3.2 0.00 3.20 0.00 81 1013.2
20260507172030 16 209 0.0 3.2 0.00 3.20 0.00 80 1013.1
20260507171511 16 209 1.6 3.2 0.00 3.20 0.00 80 1013.1
20260507171030 16 209 0.0 0.0 0.00 3.20 0.00 81 1013.2
20260507170535 16 209 0.0 0.0 0.00 3.20 0.00 80 1013.2
20260507170045 16 209 0.0 3.2 0.00 6.71 0.00 81 1013.1
20260507165528 16 209 0.0 6.4 0.00 6.71 0.00 80 1013.1
20260507165030 16 209 3.2 6.4 0.00 6.71 0.00 79 1013.1
20260507164534 16 208 1.6 1.6 0.00 6.71 0.00 80 1013.1
20260507164012 16 208 0.0 1.6 0.00 6.71 0.00 78 1013.1
20260507163516 17 208 0.0 1.6 0.00 6.71 0.00 78 1013.1
20260507163047 17 208 0.0 1.6 0.00 6.71 0.00 78 1013.2
20260507162528 17 208 0.0 3.2 0.00 6.71 0.00 77 1013.3
20260507162027 17 208 1.6 3.2 0.00 6.71 0.00 75 1013.4
20260507161529 17 208 0.0 1.6 0.00 6.71 0.00 75 1013.3
20260507161028 17 208 0.0 1.6 0.00 6.71 0.00 74 1013.2
20260507160530 17 208 0.0 1.6 0.00 6.71 0.00 73 1013.1
20260507160023 17 208 0.0 6.4 0.00 6.71 0.00 71 1013.0
20260507155546 18 208 1.6 6.4 0.00 6.71 0.00 70 1013.0
20260507155029 18 208 1.6 8.0 0.00 6.71 0.00 70 1013.1
20260507154531 18 208 3.2 12.9 0.00 6.71 0.00 67 1013.0
20260507154030 19 211 4.8 12.9 0.00 6.71 0.00 64 1012.8
20260507153531 19 216 6.4 12.9 0.00 6.71 0.00 59 1012.8
20260507153024 19 211 6.4 12.9 0.00 6.71 0.00 64 1012.7
20260507152527 19 221 8.0 12.9 0.00 6.71 0.00 63 1012.7
20260507152026 20 217 6.4 14.5 0.00 6.71 0.00 64 1012.8
20260507151530 20 222 8.0 14.5 0.00 6.71 0.00 60 1012.6
20260507151030 20 217 4.8 12.9 0.00 6.71 0.00 61 1012.4
20260507150513 21 207 4.8 11.3 0.00 6.71 0.00 63 1012.2
20260507150026 21 204 6.4 12.9 0.00 6.71 0.00 62 1011.9
20260507145528 21 199 4.8 12.9 0.00 6.71 0.00 58 1011.7
20260507145029 21 213 4.8 16.1 0.00 6.71 0.00 58 1011.7
20260507144512 21 221 4.8 11.3 0.00 6.71 0.00 59 1011.6
20260507144031 22 223 8.0 11.3 0.00 6.71 0.00 55 1011.5
20260507143517 22 242 3.2 11.3 0.00 6.71 0.00 56 1011.5
20260507143045 22 215 4.8 12.9 0.00 6.71 0.00 52 1011.5
20260507142533 21 203 6.4 12.9 0.00 6.71 0.00 52 1011.5
20260507142011 21 227 6.4 12.9 0.00 6.71 0.00 56 1011.5
20260507141514 21 208 4.8 9.7 0.00 6.71 0.00 53 1011.5
20260507141012 21 202 3.2 8.0 0.00 6.71 0.00 53 1011.4
20260507140516 21 215 1.6 9.7 0.00 6.71 0.00 55 1011.5
20260507140029 22 215 4.8 14.5 0.00 6.71 0.00 50 1011.5
20260507135512 22 203 8.0 14.5 0.00 6.71 0.00 53 1011.5
20260507135011 22 209 3.2 11.3 0.00 6.71 0.00 53 1011.5
20260507134515 22 211 8.0 11.3 0.00 6.71 0.00 52 1011.6
20260507134016 22 196 4.8 9.7 0.00 6.71 0.00 52 1011.6
20260507133518 22 216 3.2 8.0 0.00 6.71 0.00 51 1011.6
20260507133031 22 217 3.2 11.3 0.00 6.71 0.00 47 1011.8
20260507132513 22 204 6.4 12.9 0.00 6.71 0.00 52 1011.7
20260507132017 22 196 8.0 12.9 0.00 6.71 0.00 55 1011.7
20260507131540 22 199 1.6 11.3 0.00 6.71 0.00 61 1011.7
20260507131019 21 204 3.2 14.5 0.00 6.71 0.00 60 1011.8
20260507130522 22 227 6.4 14.5 0.00 6.71 0.00 59 1011.8
20260507130014 22 215 3.2 11.3 0.00 7.59 0.00 60 1011.8
20260507125518 22 209 4.8 12.9 0.00 7.59 0.00 59 1011.9
20260507125017 22 219 6.4 12.9 0.00 7.59 0.00 57 1011.9
20260507124522 22 234 6.4 12.9 0.00 7.59 0.00 59 1011.9
20260507124022 22 214 4.8 9.7 0.00 7.59 0.00 60 1011.9
20260507123545 22 211 1.6 9.7 0.00 7.59 0.00 60 1011.8
20260507123018 22 205 3.2 8.0 0.00 7.59 0.00 58 1011.8
20260507122543 21 205 4.8 8.0 0.00 7.59 0.00 57 1011.9
20260507122044 21 240 1.6 9.7 0.00 7.59 0.00 61 1011.9
20260507121546 21 234 4.8 9.7 0.00 7.59 0.00 61 1011.9
20260507121045 21 211 4.8 11.3 0.00 7.59 0.00 61 1012.0
20260507120548 21 227 4.8 14.5 0.00 7.59 0.00 62 1012.0
20260507120021 21 211 8.0 16.1 0.00 8.51 0.00 59 1012.1
20260507115524 21 205 6.4 16.1 0.00 8.51 0.00 57 1012.1
20260507115023 21 203 4.8 9.7 0.00 8.51 0.00 60 1012.1
20260507114546 21 202 4.8 11.3 0.00 8.51 0.00 60 1012.1
20260507114023 21 234 6.4 11.3 0.00 8.51 0.00 59 1012.1
20260507113527 22 209 3.2 11.3 0.00 8.51 0.00 59 1012.2
20260507113019 21 195 3.2 12.9 0.00 8.51 0.00 60 1012.2
20260507112522 21 194 6.4 16.1 0.00 8.51 0.00 62 1012.3
20260507112023 21 207 4.8 14.5 0.00 8.51 0.00 60 1012.3
20260507111530 21 196 6.4 12.9 0.00 8.51 0.00 63 1012.4
20260507111029 21 209 3.2 11.3 0.00 8.51 0.00 63 1012.3
20260507110513 21 216 6.4 11.3 0.00 8.51 0.00 63 1012.3
20260507110024 21 223 4.8 14.5 0.00 8.89 0.00 63 1012.3
20260507105525 21 217 6.4 14.5 0.00 8.89 0.00 67 1012.4
20260507105024 20 200 3.2 14.5 0.00 8.89 0.00 66 1012.5
20260507104526 21 198 8.0 16.1 0.00 8.89 0.00 65 1012.6
20260507104026 21 250 4.8 16.1 0.00 8.89 0.00 66 1012.6
20260507103530 21 217 3.2 12.9 0.00 8.89 0.00 66 1012.6
20260507103021 21 216 4.8 12.9 0.00 8.89 0.00 67 1012.6
20260507102525 21 193 3.2 8.0 0.00 8.89 0.00 65 1012.5
20260507102026 21 157 1.6 9.7 0.00 8.89 0.00 64 1012.6
20260507101527 21 207 4.8 14.5 0.00 8.89 0.00 64 1012.6
20260507101026 21 209 6.4 14.5 0.00 8.89 0.00 65 1012.7
20260507100530 20 203 6.4 12.9 0.00 8.89 0.00 68 1012.7
20260507100022 20 232 6.4 12.9 0.00 8.99 0.00 69 1012.7
20260507095529 20 186 6.4 12.9 0.00 8.99 0.00 70 1012.6
20260507095050 20 204 3.2 9.7 0.00 8.99 0.00 71 1012.6
20260507094532 19 232 3.2 11.3 0.00 8.99 0.00 72 1012.6
20260507094012 19 236 6.4 12.9 0.00 8.99 0.00 71 1012.6
20260507093515 19 247 4.8 12.9 0.00 8.99 0.00 70 1012.6
20260507093026 20 221 4.8 12.9 0.00 8.99 0.00 70 1012.6
20260507092530 20 221 8.0 12.9 0.00 8.99 0.00 72 1012.6
20260507092028 20 202 4.8 14.5 0.00 8.99 0.00 72 1012.6
20260507091530 19 199 4.8 14.5 0.00 8.99 0.00 75 1012.6
20260507091031 19 238 8.0 12.9 0.00 8.99 0.00 77 1012.5
20260507090533 18 228 3.2 6.4 0.00 8.99 0.00 81 1012.5
20260507090024 18 225 3.2 9.7 0.00 10.11 0.00 82 1012.5
20260507085525 18 224 4.8 9.7 0.00 10.11 0.00 81 1012.5
20260507085024 18 230 3.2 6.4 0.00 10.11 0.00 82 1012.5
20260507084525 18 231 0.0 3.2 0.00 10.11 0.00 86 1012.5
20260507084023 18 231 0.0 4.8 0.00 10.11 0.00 86 1012.4
20260507083531 18 231 1.6 4.8 0.00 10.11 0.00 83 1012.5
20260507083023 18 230 1.6 6.4 0.00 10.11 0.00 83 1012.5
20260507082527 18 229 1.6 6.4 0.00 10.11 0.00 83 1012.4
20260507082026 18 229 1.6 6.4 0.00 10.11 0.00 81 1012.4
20260507081529 18 229 3.2 6.4 0.00 10.11 0.00 82 1012.4
20260507081031 18 232 1.6 6.4 0.00 10.11 0.00 84 1012.3
20260507080512 17 235 1.6 6.4 0.00 10.11 0.00 84 1012.3
20260507080024 17 236 3.2 6.4 0.00 11.40 0.00 85 1012.3
20260507075528 17 236 3.2 6.4 0.00 11.40 0.00 85 1012.3
20260507075030 17 232 3.2 8.0 0.00 11.40 0.00 85 1012.2
20260507074515 17 231 3.2 8.0 0.00 11.40 0.00 84 1012.3
20260507074015 18 247 1.6 4.8 0.00 11.40 0.00 84 1012.2
20260507073522 18 248 3.2 6.4 0.00 11.40 0.00 84 1012.2
20260507073015 18 248 1.6 6.4 0.00 11.40 0.00 84 1012.2
20260507072518 18 251 3.2 9.7 0.00 11.40 0.00 84 1012.2
20260507072018 17 263 3.2 9.7 0.00 11.40 0.00 84 1012.2
20260507071541 17 279 3.2 8.0 0.00 11.40 0.00 87 1012.1
20260507071019 17 288 0.0 3.2 0.00 11.40 0.00 89 1012.1
20260507070524 17 288 1.6 3.2 0.00 11.40 0.00 89 1012.0
20260507070015 16 287 1.6 3.2 0.00 16.31 0.00 90 1012.1
20260507065516 16 288 0.0 3.2 0.00 16.31 0.00 92 1012.1
20260507065015 16 288 0.0 3.2 0.00 16.31 0.00 92 1012.1
20260507064518 16 288 1.6 3.2 0.00 16.31 0.00 92 1012.0
20260507064016 16 288 1.6 4.8 0.00 16.31 0.00 92 1012.0
20260507063541 15 288 3.2 4.8 0.00 16.31 0.00 93 1012.0
20260507063032 15 285 3.2 4.8 0.00 16.31 0.00 94 1011.9
20260507062515 15 283 0.0 1.6 0.00 16.31 0.00 94 1011.9
20260507062013 15 283 0.0 1.6 0.00 16.31 0.00 94 1011.9
20260507061518 15 283 0.0 0.0 0.00 16.31 0.00 94 1011.9
20260507061019 15 283 0.0 0.0 0.00 16.31 0.00 94 1012.0
20260507060524 15 283 0.0 3.2 0.00 16.31 0.00 94 1012.0
20260507060015 15 283 0.0 4.8 0.00 16.31 0.00 94 1012.1
20260507055538 15 283 1.6 4.8 0.00 16.31 0.00 94 1012.0
20260507055039 15 283 1.6 6.4 0.00 16.31 0.00 95 1011.8
20260507054539 15 283 3.2 6.4 0.00 16.31 0.00 95 1011.8
20260507054022 15 279 1.6 4.8 0.00 16.31 0.00 95 1011.8
20260507053544 14 279 1.6 3.2 0.00 16.31 0.00 95 1011.7
20260507053015 14 279 1.6 4.8 0.00 16.31 0.00 95 1011.7
20260507052540 14 279 1.6 6.4 0.00 16.31 0.00 94 1011.7
20260507052020 14 278 3.2 6.4 0.00 16.31 0.00 94 1011.7
20260507051523 14 273 3.2 6.4 0.00 16.31 0.00 94 1011.6
20260507051022 14 270 3.2 6.4 0.00 16.31 0.00 94 1011.5
20260507050546 14 267 0.0 3.2 0.00 16.31 0.00 95 1011.5
20260507050016 14 267 0.0 3.2 0.00 16.31 0.00 94 1011.4
20260507045540 14 267 0.0 3.2 0.00 16.31 0.00 94 1011.3
20260507045019 14 267 0.0 4.8 0.00 16.31 0.00 94 1011.3
20260507044522 14 267 3.2 4.8 0.00 16.31 0.00 94 1011.2
20260507044019 14 265 1.6 4.8 0.00 16.31 0.00 94 1011.2
20260507043542 14 264 0.0 3.2 0.00 16.31 0.00 94 1011.2
20260507043031 14 264 1.6 3.2 0.00 16.31 0.00 94 1011.1
20260507042514 14 264 0.0 3.2 0.00 16.31 0.00 94 1011.1
20260507042033 14 264 0.0 1.6 0.00 16.31 0.00 94 1011.0
20260507041516 14 264 0.0 1.6 0.00 16.31 0.00 94 1011.1
20260507041035 14 264 0.0 3.2 0.00 16.31 0.00 94 1011.0
20260507040516 15 264 1.6 4.8 0.00 16.31 0.00 94 1010.9
20260507040027 15 263 0.0 6.4 0.00 16.31 0.00 94 1010.9
20260507035529 15 262 1.6 4.8 0.00 16.31 0.00 94 1010.9
20260507035014 15 262 0.0 4.8 0.00 16.31 0.00 94 1010.8
20260507034516 15 261 3.2 4.8 0.00 16.31 0.00 94 1010.8
20260507034016 15 260 0.0 4.8 0.00 16.31 0.00 94 1010.8
20260507033518 15 260 1.6 6.4 0.00 16.31 0.00 94 1010.7
20260507033029 15 259 3.2 6.4 0.00 16.31 0.00 94 1010.8
20260507032552 15 257 0.0 1.6 0.00 16.31 0.00 94 1010.8
20260507032030 15 257 0.0 0.0 0.00 16.31 0.00 94 1010.9
20260507031514 15 257 0.0 0.0 0.00 16.31 0.00 94 1010.8
20260507031013 15 257 0.0 1.6 0.00 16.31 0.00 94 1010.8
20260507030515 15 257 0.0 1.6 0.00 16.31 0.00 94 1010.8
20260507030048 15 257 0.0 3.2 0.00 16.41 0.00 94 1010.8
20260507025528 15 257 1.6 11.3 0.00 16.41 0.00 94 1010.7
20260507025029 15 257 4.8 11.3 0.00 16.41 0.00 94 1010.8
20260507024532 15 262 3.2 4.8 0.00 16.41 0.00 94 1010.7
20260507024032 15 261 0.0 4.8 0.00 16.41 0.00 94 1010.7
20260507023535 15 261 3.2 11.3 0.00 16.41 0.00 94 1010.7
20260507023026 15 261 4.8 11.3 0.00 16.41 0.00 95 1010.7
20260507022529 15 256 4.8 11.3 0.00 16.41 0.00 95 1010.7
20260507022014 15 252 6.4 11.3 0.00 16.41 0.00 95 1010.7
20260507021517 15 250 4.8 11.3 0.00 16.41 0.00 95 1010.7
20260507021016 15 246 3.2 6.4 0.00 16.41 0.00 95 1010.6
20260507020517 15 246 1.6 6.4 0.00 16.41 0.00 95 1010.7
20260507020029 15 246 3.2 6.4 0.00 16.61 0.00 95 1010.7
20260507015552 15 244 1.6 3.2 0.00 16.61 0.00 95 1010.7
20260507015031 15 244 1.6 3.2 0.00 16.61 0.00 95 1010.7
20260507014533 15 244 0.0 6.4 0.00 16.61 0.00 95 1010.7
20260507014031 15 244 1.6 6.4 0.00 16.61 0.00 95 1010.7
20260507013536 15 243 1.6 8.0 0.00 16.61 0.00 95 1010.8
20260507013025 15 244 3.2 8.0 0.00 16.61 0.00 95 1010.8
20260507012529 15 242 1.6 3.2 0.00 16.61 0.00 95 1010.7
20260507012030 15 242 0.0 1.6 0.00 16.61 0.00 95 1010.6
20260507011533 15 242 0.0 1.6 0.00 16.61 0.00 95 1010.7
20260507011033 15 242 0.0 3.2 0.00 16.61 0.00 95 1010.7
20260507010518 15 242 1.6 4.8 0.00 16.61 0.00 95 1010.7
20260507010030 15 242 1.6 4.8 0.00 22.40 0.00 95 1010.6
20260507005554 15 242 0.0 1.6 0.00 22.40 0.00 95 1010.6
20260507005013 15 242 0.0 1.6 0.00 22.40 0.00 95 1010.7
20260507004536 15 242 0.0 3.2 0.00 22.40 0.00 95 1010.6
20260507004017 15 242 0.0 3.2 0.00 22.40 0.00 95 1010.6
20260507003521 15 242 1.6 3.2 0.00 22.40 0.00 95 1010.7
20260507003014 15 242 0.0 3.2 0.00 22.40 0.00 95 1010.7
20260507002516 15 242 1.6 8.0 0.00 22.40 0.00 95 1010.7
20260507002015 15 242 1.6 8.0 0.00 22.40 0.00 95 1010.8
20260507001518 15 242 1.6 6.4 0.00 22.40 0.00 95 1010.8
20260507001018 15 242 1.6 6.4 0.00 22.40 0.00 95 1010.8
20260507000522 15 242 0.0 0.0 0.00 22.40 0.00 95 1010.8
20260507000014 15 242 0.0 0.0 0.00 24.79 0.00 95 1010.8
20260506235518 15 242 0.0 1.6 0.00 24.79 0.00 95 1010.8
20260506235018 15 242 0.0 3.2 0.00 24.79 0.00 95 1010.8
20260506234525 15 242 0.0 3.2 0.00 24.79 0.00 95 1010.8
20260506234026 15 242 0.0 3.2 0.00 24.79 0.00 95 1010.9
20260506233529 15 242 0.0 4.8 0.00 24.79 0.00 95 1010.9
20260506233020 15 242 3.2 6.4 0.00 24.79 0.00 95 1010.9
20260506232525 15 242 4.8 6.4 0.00 24.79 0.00 94 1011.0
20260506232045 15 243 1.6 3.2 0.00 24.79 0.00 94 1011.0
20260506231526 15 243 0.0 4.8 0.00 24.79 0.00 94 1011.1
20260506231047 15 243 1.6 4.8 0.00 24.79 0.00 94 1011.1
20260506230530 15 243 1.6 4.8 0.00 24.79 0.00 94 1011.1
20260506230022 15 243 0.0 3.2 0.00 24.79 0.00 94 1011.2
20260506225525 15 243 0.0 3.2 0.00 24.79 0.00 94 1011.2
20260506225024 15 243 0.0 3.2 0.00 24.79 0.00 94 1011.1
20260506224548 15 243 0.0 4.8 0.00 24.79 0.00 94 1011.1